Total_Precipitation_Accumulation
0.00 0.00 0.00 0.00 0.00 0.00 0.00 0.00 0.00 0.00 0.00 0.00 0.00 0.00 0.00 0.00 0.00 0.00 0.00 0.00 0.00 0.00 0.01 0.02 0.03 0.04 0.06 0.09 0.11 0.13 0.13 0.13 0.13 0.13 0.14 0.15 0.15 0.16 0.16 0.17 0.18 0.19 0.20
0.00 0.00 0.00 0.00 0.00 0.00 0.00 0.00 0.00 0.00 0.00 0.00 0.00 0.00 0.00 0.00 0.00 0.00 0.00 0.00 0.00 0.00 0.00 0.01 0.02 0.03 0.05 0.08 0.11 0.12 0.13 0.13 0.13 0.14 0.15 0.16 0.17 0.18 0.19 0.20 0.21 0.22 0.23
0.00 0.00 0.00 0.00 0.00 0.00 0.00 0.00 0.00 0.00 0.00 0.00 0.00 0.00 0.00 0.00 0.00 0.00 0.00 0.00 0.00 0.00 0.00 0.01 0.01 0.02 0.03 0.05 0.07 0.09 0.11 0.13 0.15 0.16 0.17 0.19 0.20 0.21 0.23 0.25 0.26 0.27 0.29
0.01 0.00 0.00 0.00 0.00 0.00 0.00 0.00 0.00 0.00 0.00 0.00 0.00 0.00 0.00 0.00 0.00 0.00 0.00 0.00 0.00 0.00 0.00 0.00 0.01 0.02 0.03 0.04 0.05 0.08 0.10 0.12 0.13 0.14 0.15 0.17 0.19 0.22 0.25 0.29 0.32 0.35 0.38
0.02 0.01 0.01 0.00 0.00 0.00 0.00 0.00 0.00 0.00 0.00 0.00 0.00 0.00 0.00 0.00 0.00 0.00 0.00 0.00 0.00 0.00 0.00 0.00 0.01 0.01 0.02 0.03 0.04 0.07 0.10 0.12 0.13 0.13 0.14 0.15 0.17 0.20 0.24 0.29 0.34 0.39 0.47
0.05 0.02 0.01 0.01 0.01 0.00 0.00 0.00 0.00 0.00 0.00 0.00 0.01 0.00 0.00 0.00 0.00 0.00 0.00 0.00 0.00 0.00 0.00 0.00 0.01 0.01 0.01 0.03 0.04 0.05 0.08 0.11 0.12 0.13 0.13 0.15 0.17 0.19 0.23 0.28 0.34 0.42 0.53
0.12 0.07 0.04 0.03 0.02 0.01 0.01 0.01 0.01 0.01 0.01 0.01 0.01 0.01 0.00 0.00 0.00 0.00 0.00 0.00 0.00 0.00 0.00 0.00 0.01 0.01 0.02 0.03 0.03 0.04 0.06 0.09 0.13 0.16 0.16 0.17 0.18 0.22 0.26 0.32 0.39 0.47 0.56
0.19 0.15 0.10 0.07 0.06 0.04 0.04 0.03 0.03 0.03 0.02 0.02 0.03 0.05 0.03 0.01 0.00 0.00 0.00 0.00 0.01 0.01 0.01 0.01 0.01 0.02 0.02 0.03 0.03 0.03 0.04 0.06 0.11 0.19 0.24 0.25 0.26 0.29 0.33 0.40 0.49 0.56 0.62
0.26 0.22 0.20 0.17 0.14 0.11 0.08 0.08 0.08 0.07 0.07 0.05 0.05 0.09 0.09 0.05 0.03 0.02 0.01 0.02 0.02 0.02 0.03 0.03 0.03 0.03 0.03 0.03 0.04 0.04 0.06 0.07 0.10 0.17 0.28 0.36 0.41 0.45 0.51 0.57 0.63 0.68 0.74
0.29 0.29 0.28 0.26 0.22 0.19 0.17 0.17 0.17 0.16 0.16 0.14 0.11 0.11 0.13 0.13 0.15 0.11 0.05 0.04 0.04 0.04 0.04 0.04 0.04 0.04 0.05 0.06 0.08 0.10 0.12 0.14 0.17 0.21 0.32 0.44 0.56 0.66 0.78 0.87 0.93 0.97 0.97
0.29 0.33 0.32 0.31 0.28 0.27 0.28 0.29 0.28 0.27 0.26 0.25 0.23 0.22 0.22 0.21 0.22 0.24 0.17 0.09 0.08 0.08 0.09 0.08 0.09 0.10 0.11 0.12 0.13 0.16 0.21 0.24 0.28 0.32 0.42 0.57 0.73 0.90 1.07 1.18 1.23 1.22 1.18
0.32 0.31 0.33 0.33 0.34 0.33 0.34 0.36 0.38 0.38 0.37 0.35 0.34 0.33 0.36 0.35 0.32 0.35 0.35 0.24 0.21 0.18 0.17 0.17 0.17 0.17 0.17 0.18 0.20 0.22 0.24 0.27 0.33 0.40 0.54 0.73 0.86 0.97 1.09 1.23 1.32 1.34 1.34
0.26 0.28 0.33 0.35 0.35 0.37 0.40 0.42 0.42 0.40 0.40 0.39 0.38 0.39 0.41 0.43 0.44 0.48 0.53 0.44 0.36 0.29 0.25 0.24 0.25 0.26 0.27 0.29 0.30 0.35 0.34 0.36 0.40 0.43 0.52 0.72 0.84 0.85 0.86 0.93 1.11 1.24 1.33
0.28 0.34 0.34 0.34 0.33 0.34 0.35 0.37 0.37 0.37 0.40 0.42 0.43 0.45 0.45 0.44 0.48 0.52 0.58 0.64 0.59 0.44 0.35 0.31 0.32 0.36 0.39 0.40 0.41 0.44 0.39 0.40 0.40 0.42 0.46 0.55 0.60 0.59 0.59 0.65 0.78 0.92 1.06
0.23 0.27 0.29 0.31 0.31 0.29 0.28 0.29 0.30 0.31 0.33 0.36 0.40 0.44 0.46 0.45 0.48 0.53 0.59 0.69 0.80 0.73 0.54 0.43 0.42 0.42 0.46 0.45 0.45 0.43 0.36 0.37 0.38 0.36 0.36 0.36 0.38 0.41 0.43 0.47 0.56 0.66 0.76
0.16 0.19 0.20 0.22 0.23 0.23 0.23 0.24 0.26 0.27 0.30 0.31 0.34 0.38 0.41 0.43 0.47 0.52 0.59 0.66 0.76 0.84 0.71 0.48 0.41 0.40 0.42 0.40 0.39 0.35 0.29 0.33 0.32 0.30 0.30 0.31 0.33 0.35 0.37 0.40 0.44 0.50 0.57
0.11 0.13 0.14 0.15 0.16 0.17 0.18 0.19 0.21 0.22 0.26 0.29 0.33 0.38 0.42 0.45 0.48 0.50 0.53 0.58 0.64 0.71 0.71 0.51 0.42 0.41 0.39 0.34 0.31 0.29 0.25 0.24 0.22 0.24 0.26 0.28 0.30 0.33 0.35 0.37 0.39 0.42 0.47
0.09 0.10 0.10 0.11 0.11 0.11 0.11 0.13 0.16 0.19 0.23 0.27 0.30 0.35 0.40 0.43 0.47 0.48 0.49 0.51 0.52 0.54 0.61 0.54 0.39 0.36 0.33 0.32 0.33 0.31 0.26 0.23 0.19 0.20 0.24 0.27 0.30 0.32 0.33 0.36 0.40 0.45 0.48
0.06 0.06 0.07 0.08 0.09 0.09 0.10 0.11 0.13 0.16 0.19 0.21 0.24 0.27 0.31 0.35 0.37 0.36 0.35 0.36 0.38 0.42 0.48 0.51 0.40 0.34 0.30 0.28 0.29 0.27 0.24 0.21 0.19 0.20 0.25 0.27 0.29 0.31 0.34 0.38 0.42 0.45 0.48
0.05 0.05 0.05 0.06 0.07 0.09 0.11 0.14 0.16 0.19 0.20 0.21 0.22 0.24 0.25 0.25 0.25 0.24 0.25 0.27 0.33 0.38 0.41 0.46 0.43 0.35 0.31 0.27 0.27 0.23 0.21 0.19 0.19 0.19 0.24 0.28 0.31 0.35 0.37 0.40 0.43 0.45 0.47
0.06 0.07 0.08 0.09 0.10 0.11 0.14 0.17 0.18 0.20 0.21 0.22 0.21 0.20 0.19 0.19 0.19 0.19 0.22 0.27 0.34 0.41 0.48 0.54 0.51 0.44 0.37 0.30 0.25 0.25 0.31 0.30 0.28 0.25 0.26 0.28 0.33 0.38 0.41 0.43 0.46 0.47 0.48
0.09 0.11 0.13 0.16 0.18 0.19 0.25 0.23 0.20 0.21 0.22 0.21 0.20 0.19 0.18 0.19 0.16 0.17 0.20 0.28 0.41 0.54 0.64 0.68 0.65 0.55 0.41 0.35 0.34 0.39 0.48 0.56 0.50 0.30 0.33 0.35 0.37 0.43 0.43 0.45 0.51 0.55 0.55
0.20 0.20 0.20 0.22 0.25 0.30 0.31 0.24 0.21 0.18 0.17 0.17 0.15 0.14 0.13 0.12 0.13 0.11 0.14 0.25 0.34 0.44 0.51 0.54 0.53 0.41 0.37 0.36 0.49 0.64 0.68 0.72 0.59 0.37 0.43 0.49 0.41 0.43 0.44 0.48 0.57 0.57 0.54
0.27 0.28 0.28 0.25 0.24 0.25 0.24 0.18 0.15 0.14 0.14 0.13 0.11 0.10 0.10 0.09 0.09 0.13 0.20 0.28 0.23 0.19 0.24 0.29 0.33 0.34 0.37 0.44 0.61 0.85 0.92 0.90 0.71 0.54 0.50 0.55 0.42 0.38 0.40 0.44 0.51 0.50 0.46
0.33 0.30 0.27 0.26 0.25 0.23 0.19 0.14 0.12 0.10 0.10 0.08 0.07 0.07 0.08 0.07 0.09 0.21 0.33 0.35 0.24 0.14 0.16 0.24 0.33 0.36 0.37 0.40 0.48 0.75 0.94 1.00 0.84 0.55 0.47 0.55 0.51 0.47 0.45 0.42 0.44 0.48 0.46
0.30 0.28 0.25 0.21 0.18 0.17 0.16 0.12 0.09 0.08 0.08 0.07 0.06 0.06 0.07 0.08 0.15 0.27 0.32 0.33 0.27 0.18 0.22 0.25 0.26 0.27 0.26 0.30 0.39 0.58 1.01 1.40 1.19 0.82 0.50 0.61 0.62 0.66 0.77 0.48 0.42 0.45 0.45